Fort Polk, LA

9:11 PM CDT on May 29, 2017 (GMT -0500)
Fort Polk

Weather History for KAQV - November, 2011

Change the Weather History Date:

Tuesday, November 29, 2011

  Actual Average (KPOE) Record (KPOE)
Temperature  
Mean Temperature 48 °F -  
Max Temperature 64 °F 63 °F 81 °F (2016)
Min Temperature 32 °F 44 °F 27 °F (2013)
Degree Days  
Heating Degree Days 17    
Moisture  
Dew Point 29 °F    
Average Humidity 53    
Maximum Humidity 92    
Minimum Humidity 21    
Precipitation  
Precipitation 0.00 in - - ()
Sea Level Pressure  
Sea Level Pressure 30.08 in    
Wind  
Wind Speed 2 mph (WNW)    
Max Wind Speed 7 mph    
Max Gust Speed -    
Visibility 10 miles    
Events      
Averages and records for this station are not official NWS values.
T = Trace of Precipitation, MM = Missing Value Source: NWS Daily Summary

Daily Weather History Graph

Daily Weather History Graph

Search for Another Location

Airport or City:

Trip Planner

Search our weather history database for the weather conditions in past years. The results will help you decide how hot, cold, wet, or windy it might be!

Date:

Astronomy

Nov. 29, 2011 Rise Set
Actual Time 6:52 AM CST 5:10 PM CST
Civil Twilight 6:26 AM CST 5:36 PM CST
Nautical Twilight 5:56 AM CST 6:06 PM CST
Astronomical Twilight 5:27 AM CST 6:35 PM CST
Moon 10:45 AM CST (11/29) 9:56 PM CST (11/29)
Length of Visible Light 11h 10m
Length of Day
10h 17m
Waxing Crescent, 24% of the Moon is Illuminated
Nov 29
Waxing Crescent
Dec 2
First Quarter
Dec 10
Full
Dec 17
Last Quarter
Dec 24
New

Hourly Weather History & Observations

Time (CST) Temp. Windchill Dew Point Humidity Pressure Visibility Wind Dir Wind Speed Gust Speed Precip Events Conditions
12:56 AM 32.0 °F - 30.0 °F 92% 30.03 in 10.0 mi Calm Calm - N/A   Clear
1:56 AM 32.0 °F - 30.0 °F 92% 30.03 in 9.0 mi Calm Calm - N/A   Clear
3:56 AM 36.0 °F 33.3 °F 30.0 °F 79% 30.01 in 10.0 mi Variable 3.5 mph - N/A   Clear
4:56 AM 37.0 °F 34.5 °F 28.9 °F 73% 30.02 in 10.0 mi Variable 3.5 mph - N/A   Clear
5:56 AM 37.9 °F - 27.0 °F 65% 30.03 in 10.0 mi Calm Calm - N/A   Clear
6:56 AM 37.9 °F - 27.0 °F 65% 30.05 in 10.0 mi Calm Calm - N/A   Clear
7:56 AM 41.0 °F 39.0 °F 28.0 °F 60% 30.07 in 10.0 mi Variable 3.5 mph - N/A   Clear
8:56 AM 45.0 °F 41.8 °F 27.0 °F 49% 30.10 in 10.0 mi NW 5.8 mph - N/A   Clear
9:56 AM 48.9 °F - 25.0 °F 39% 30.11 in 10.0 mi Variable 3.5 mph - N/A   Clear
10:56 AM 54.0 °F - 25.0 °F 33% 30.11 in 10.0 mi Variable 6.9 mph - N/A   Clear
11:56 AM 57.0 °F - 21.9 °F 26% 30.09 in 8.0 mi Variable 4.6 mph - N/A   Clear
12:56 PM 61.0 °F - 19.9 °F 21% 30.07 in 5.0 mi Variable 6.9 mph - N/A   Haze
1:56 PM 62.1 °F - 23.0 °F 22% 30.06 in 10.0 mi Variable 3.5 mph - N/A   Mostly Cloudy
2:37 PM 62.6 °F - 26.6 °F 26% 30.05 in 10.0 mi Calm Calm - N/A   Partly Cloudy
2:56 PM 64.0 °F - 27.0 °F 25% 30.06 in 10.0 mi Variable 3.5 mph - N/A   Partly Cloudy
3:56 PM 62.1 °F - 27.0 °F 26% 30.07 in 10.0 mi West 6.9 mph - N/A   Clear
4:56 PM 57.0 °F - 30.0 °F 36% 30.09 in 10.0 mi Calm Calm - N/A   Clear
5:56 PM 54.0 °F - 30.9 °F 41% 30.11 in 10.0 mi Calm Calm - N/A   Clear
6:56 PM 48.9 °F - 34.0 °F 56% 30.11 in 10.0 mi Calm Calm - N/A   Clear
8:56 PM 46.0 °F - 34.0 °F 63% 30.15 in 10.0 mi Calm Calm - N/A   Clear
9:56 PM 42.1 °F - 35.1 °F 76% 30.16 in 10.0 mi Calm Calm - N/A   Clear
10:56 PM 43.0 °F - 35.1 °F 74% 30.17 in 10.0 mi Calm Calm - N/A   Clear
11:56 PM 41.0 °F - 34.0 °F 76% 30.19 in 8.0 mi Calm Calm - N/A   Clear